PRF423 HTAR-HTZA

Flight info

Callsign PRF423
Flight time 1h 6m
Altitude 19000
Route GEREN DCT OKPOL
Aircraft AT76/M-SDFGIRY/S

Departure

Time 2026-05-04 11:38
Airport Arusha Airport (HTAR)

Arrival

Time 2026-05-04 12:45
Airport Abeid Amani Karume International Airport (HTZA)
Time Latitude Longitude Altitude Speed Heading
2026-05-04 10:54 -3.36754 36.62409 4569 ft 0 kts 90°
2026-05-04 11:34 -3.36750 36.62411 4566 ft 1 kts 44°
2026-05-04 11:34 -3.36731 36.62421 4571 ft 4 kts 30°
2026-05-04 11:35 -3.36721 36.62427 4569 ft 2 kts 30°
2026-05-04 11:35 -3.36713 36.62429 4569 ft 0 kts 359°
2026-05-04 11:35 -3.36690 36.62414 4571 ft 12 kts 313°
2026-05-04 11:35 -3.36650 36.62327 4564 ft 15 kts 276°
2026-05-04 11:36 -3.36644 36.62216 4562 ft 17 kts 269°
2026-05-04 11:36 -3.36645 36.62100 4560 ft 17 kts 271°
2026-05-04 11:36 -3.36639 36.61970 4554 ft 20 kts 272°
2026-05-04 11:36 -3.36637 36.61864 4547 ft 14 kts 255°
2026-05-04 11:37 -3.36637 36.61828 4545 ft 2 kts 345°
2026-05-04 11:37 -3.36634 36.61837 4554 ft 0 kts 79°
2026-05-04 11:37 -3.36639 36.61986 4555 ft 46 kts 91°
2026-05-04 11:37 -3.36660 36.62462 4569 ft 92 kts 93°
2026-05-04 11:38 -3.36677 36.63253 4634 ft 128 kts 91°
2026-05-04 11:38 -3.36675 36.64146 5145 ft 127 kts 86°
2026-05-04 11:38 -3.36609 36.65048 5557 ft 131 kts 88°
2026-05-04 11:38 -3.36572 36.65970 5653 ft 141 kts 91°
2026-05-04 11:39 -3.36563 36.66990 5647 ft 153 kts 92°
2026-05-04 11:39 -3.36578 36.68087 5684 ft 161 kts 92°
2026-05-04 11:40 -3.37414 36.75293 6273 ft 185 kts 145°
2026-05-04 11:41 -3.38128 36.75764 6440 ft 185 kts 147°
2026-05-04 11:41 -3.39195 36.76456 6715 ft 184 kts 146°
2026-05-04 11:41 -3.40239 36.77205 6973 ft 186 kts 143°
2026-05-04 11:41 -3.41241 36.78029 7216 ft 186 kts 138°
2026-05-04 11:42 -3.42180 36.78919 7416 ft 187 kts 135°
2026-05-04 11:42 -3.43090 36.79853 7636 ft 188 kts 133°
2026-05-04 11:42 -3.44001 36.80796 7860 ft 188 kts 134°
2026-05-04 11:42 -3.44918 36.81730 8091 ft 189 kts 134°
2026-05-04 11:43 -3.45847 36.82670 8314 ft 190 kts 134°
2026-05-04 11:43 -3.46772 36.83609 8548 ft 190 kts 134°
2026-05-04 11:43 -3.47705 36.84554 8804 ft 192 kts 134°
2026-05-04 11:43 -3.48645 36.85507 9027 ft 192 kts 133°
2026-05-04 11:44 -3.49586 36.86468 9243 ft 193 kts 134°
2026-05-04 11:44 -3.50532 36.87425 9451 ft 194 kts 133°
2026-05-04 11:44 -3.51475 36.88398 9666 ft 194 kts 133°
2026-05-04 11:44 -3.52418 36.89367 9865 ft 195 kts 133°
2026-05-04 11:45 -3.53362 36.90332 10063 ft 195 kts 133°
2026-05-04 11:45 -3.54327 36.91310 10245 ft 196 kts 133°
2026-05-04 11:45 -3.55275 36.92289 10411 ft 197 kts 133°
2026-05-04 11:45 -3.56232 36.93271 10589 ft 197 kts 133°
2026-05-04 11:46 -3.57186 36.94247 10769 ft 198 kts 133°
2026-05-04 11:46 -3.58143 36.95221 10945 ft 199 kts 133°
2026-05-04 11:46 -3.59129 36.96222 11119 ft 200 kts 133°
2026-05-04 11:46 -3.60109 36.97208 11290 ft 200 kts 133°
2026-05-04 11:47 -3.61094 36.98195 11474 ft 201 kts 133°
2026-05-04 11:47 -3.62073 36.99172 11652 ft 201 kts 133°
2026-05-04 11:47 -3.63059 37.00164 11827 ft 202 kts 132°
2026-05-04 11:47 -3.64051 37.01170 12001 ft 203 kts 132°
2026-05-04 11:48 -3.65044 37.02180 12172 ft 204 kts 132°
2026-05-04 11:48 -3.66038 37.03191 12340 ft 204 kts 132°
2026-05-04 11:48 -3.67032 37.04200 12508 ft 205 kts 132°
2026-05-04 11:48 -3.68034 37.05217 12690 ft 205 kts 131°
2026-05-04 11:49 -3.69041 37.06229 12967 ft 206 kts 132°
2026-05-04 11:49 -3.70058 37.07248 13216 ft 206 kts 131°
2026-05-04 11:49 -3.71069 37.08268 13513 ft 205 kts 130°
2026-05-04 11:49 -3.72062 37.09292 13681 ft 207 kts 130°
2026-05-04 11:50 -3.73075 37.10330 13825 ft 208 kts 130°
2026-05-04 11:50 -3.74090 37.11367 13951 ft 209 kts 131°
2026-05-04 11:50 -3.75112 37.12408 14079 ft 209 kts 131°
2026-05-04 11:50 -3.76130 37.13442 14213 ft 209 kts 131°
2026-05-04 11:51 -3.77155 37.14481 14337 ft 210 kts 131°
2026-05-04 11:51 -3.78181 37.15520 14460 ft 210 kts 131°
2026-05-04 11:51 -3.79208 37.16562 14579 ft 210 kts 131°
2026-05-04 11:51 -3.80237 37.17608 14683 ft 211 kts 131°
2026-05-04 11:52 -3.81269 37.18656 14791 ft 211 kts 131°
2026-05-04 11:52 -3.82301 37.19705 14911 ft 211 kts 131°
2026-05-04 11:52 -3.83337 37.20756 15017 ft 212 kts 131°
2026-05-04 11:52 -3.84370 37.21806 15136 ft 212 kts 131°
2026-05-04 11:53 -3.85408 37.22861 15251 ft 213 kts 131°
2026-05-04 11:53 -3.86443 37.23911 15355 ft 213 kts 131°
2026-05-04 11:53 -3.87486 37.24968 15480 ft 213 kts 131°
2026-05-04 11:53 -3.88527 37.26026 15570 ft 213 kts 131°
2026-05-04 11:55 -3.95794 37.33409 16161 ft 215 kts 131°
2026-05-04 11:55 -3.96859 37.34490 16237 ft 215 kts 131°
2026-05-04 11:56 -3.97900 37.35547 16309 ft 216 kts 131°
2026-05-04 11:56 -3.98967 37.36632 16386 ft 216 kts 132°
2026-05-04 11:56 -4.00024 37.37705 16459 ft 216 kts 131°
2026-05-04 11:56 -4.01067 37.38767 16565 ft 217 kts 132°
2026-05-04 11:57 -4.02127 37.39842 16667 ft 217 kts 132°
2026-05-04 11:57 -4.03204 37.40936 16755 ft 217 kts 132°
2026-05-04 11:57 -4.04264 37.42014 16830 ft 217 kts 132°
2026-05-04 11:57 -4.05311 37.43077 16903 ft 218 kts 132°
2026-05-04 11:58 -4.06375 37.44158 16968 ft 218 kts 132°
2026-05-04 11:58 -4.07439 37.45240 17038 ft 218 kts 132°
2026-05-04 11:58 -4.08504 37.46322 17108 ft 218 kts 132°
2026-05-04 11:58 -4.09570 37.47406 17169 ft 219 kts 132°
2026-05-04 11:59 -4.10637 37.48491 17232 ft 219 kts 132°
2026-05-04 11:59 -4.11707 37.49579 17282 ft 219 kts 132°
2026-05-04 11:59 -4.12778 37.50666 17358 ft 219 kts 132°
2026-05-04 11:59 -4.13846 37.51751 17432 ft 219 kts 132°
2026-05-04 12:00 -4.14921 37.52844 17514 ft 220 kts 132°
2026-05-04 12:00 -4.15991 37.53933 17568 ft 220 kts 132°
2026-05-04 12:00 -4.17064 37.55024 17612 ft 220 kts 132°
2026-05-04 12:00 -4.18139 37.56118 17654 ft 220 kts 132°
2026-05-04 12:01 -4.19213 37.57209 17699 ft 220 kts 132°
2026-05-04 12:01 -4.20287 37.58300 17733 ft 220 kts 132°
2026-05-04 12:02 -4.26747 37.64870 18005 ft 221 kts 132°
2026-05-04 12:03 -4.27824 37.65966 18044 ft 221 kts 132°
2026-05-04 12:03 -4.28906 37.67066 18079 ft 221 kts 132°
2026-05-04 12:03 -4.29987 37.68163 18119 ft 221 kts 132°
2026-05-04 12:03 -4.31067 37.69263 18151 ft 221 kts 132°
2026-05-04 12:04 -4.32133 37.70347 18175 ft 222 kts 132°
2026-05-04 12:04 -4.33228 37.71463 18216 ft 222 kts 132°
2026-05-04 12:04 -4.34295 37.72549 18235 ft 222 kts 132°
2026-05-04 12:04 -4.35394 37.73666 18268 ft 222 kts 132°
2026-05-04 12:05 -4.36463 37.74753 18298 ft 222 kts 132°
2026-05-04 12:05 -4.37551 37.75861 18324 ft 222 kts 132°
2026-05-04 12:05 -4.38634 37.76963 18351 ft 223 kts 132°
2026-05-04 12:05 -4.39722 37.78069 18366 ft 223 kts 132°
2026-05-04 12:06 -4.40811 37.79177 18386 ft 223 kts 132°
2026-05-04 12:06 -4.41900 37.80285 18409 ft 223 kts 132°
2026-05-04 12:06 -4.42988 37.81392 18490 ft 223 kts 132°
2026-05-04 12:06 -4.44075 37.82502 18569 ft 223 kts 132°
2026-05-04 12:07 -4.45164 37.83611 18608 ft 224 kts 132°
2026-05-04 12:07 -4.46255 37.84721 18643 ft 224 kts 132°
2026-05-04 12:07 -4.47347 37.85832 18678 ft 224 kts 132°
2026-05-04 12:07 -4.48439 37.86944 18721 ft 224 kts 132°
2026-05-04 12:08 -4.49532 37.88056 18740 ft 224 kts 132°
2026-05-04 12:08 -4.50618 37.89162 18833 ft 220 kts 132°
2026-05-04 12:08 -4.51682 37.90245 18911 ft 217 kts 132°
2026-05-04 12:08 -4.52740 37.91322 18950 ft 217 kts 132°
2026-05-04 12:09 -4.53801 37.92402 18970 ft 218 kts 132°
2026-05-04 12:09 -4.54866 37.93486 18984 ft 219 kts 132°
2026-05-04 12:09 -4.55939 37.94577 18994 ft 220 kts 132°
2026-05-04 12:09 -4.57017 37.95675 18992 ft 221 kts 132°
2026-05-04 12:10 -4.58099 37.96777 19003 ft 222 kts 132°
2026-05-04 12:10 -4.59185 37.97883 18999 ft 223 kts 132°
2026-05-04 12:10 -4.60279 37.98998 18996 ft 224 kts 132°
2026-05-04 12:10 -4.61373 38.00112 19001 ft 225 kts 132°
2026-05-04 12:11 -4.62475 38.01234 19004 ft 226 kts 132°
2026-05-04 12:11 -4.63575 38.02356 19002 ft 226 kts 132°
2026-05-04 12:11 -4.64678 38.03479 19004 ft 227 kts 132°
2026-05-04 12:11 -4.65788 38.04609 19001 ft 227 kts 132°
2026-05-04 12:12 -4.66896 38.05739 19004 ft 227 kts 132°
2026-05-04 12:12 -4.67991 38.06854 19006 ft 228 kts 132°
2026-05-04 12:12 -4.69103 38.07988 19002 ft 228 kts 132°
2026-05-04 12:12 -4.70217 38.09123 19008 ft 229 kts 132°
2026-05-04 12:13 -4.71335 38.10262 19014 ft 230 kts 132°
2026-05-04 12:14 -4.79306 38.18384 19002 ft 233 kts 132°
2026-05-04 12:15 -4.80438 38.19538 19007 ft 232 kts 132°
2026-05-04 12:15 -4.81572 38.20695 19018 ft 233 kts 132°
2026-05-04 12:15 -4.82709 38.21855 19001 ft 233 kts 132°
2026-05-04 12:15 -4.83847 38.23015 19001 ft 233 kts 132°
2026-05-04 12:16 -4.84981 38.24169 19004 ft 232 kts 132°
2026-05-04 12:16 -4.86110 38.25321 19005 ft 231 kts 132°
2026-05-04 12:16 -4.87237 38.26470 19005 ft 231 kts 132°
2026-05-04 12:16 -4.88365 38.27621 19005 ft 231 kts 132°
2026-05-04 12:17 -4.89487 38.28765 19007 ft 230 kts 132°
2026-05-04 12:17 -4.90609 38.29909 19001 ft 230 kts 132°
2026-05-04 12:17 -4.91726 38.31047 18946 ft 227 kts 132°
2026-05-04 12:17 -4.92829 38.32172 18964 ft 226 kts 132°
2026-05-04 12:18 -4.93926 38.33293 18980 ft 225 kts 132°
2026-05-04 12:18 -4.95019 38.34409 18994 ft 224 kts 132°
2026-05-04 12:18 -4.96111 38.35522 19006 ft 224 kts 132°
2026-05-04 12:18 -4.97208 38.36640 19007 ft 225 kts 132°
2026-05-04 12:19 -4.98303 38.37756 19004 ft 225 kts 132°
2026-05-04 12:19 -4.99404 38.38879 19009 ft 226 kts 131°
2026-05-04 12:19 -5.00506 38.40005 18979 ft 226 kts 132°
2026-05-04 12:19 -5.01585 38.41106 18991 ft 226 kts 132°
2026-05-04 12:20 -5.02706 38.42250 19002 ft 226 kts 132°
2026-05-04 12:20 -5.03815 38.43381 18991 ft 227 kts 132°
2026-05-04 12:20 -5.04908 38.44496 18992 ft 228 kts 131°
2026-05-04 12:20 -5.06019 38.45630 18992 ft 228 kts 132°
2026-05-04 12:21 -5.07143 38.46752 19000 ft 228 kts 134°
2026-05-04 12:21 -5.08348 38.47794 18993 ft 230 kts 138°
2026-05-04 12:21 -5.09594 38.48806 18995 ft 230 kts 138°
2026-05-04 12:21 -5.10830 38.49823 18991 ft 230 kts 137°
2026-05-04 12:22 -5.12067 38.50847 18991 ft 230 kts 137°
2026-05-04 12:22 -5.13304 38.51872 18991 ft 230 kts 137°
2026-05-04 12:22 -5.14530 38.52902 18984 ft 230 kts 137°
2026-05-04 12:22 -5.15753 38.53938 18982 ft 230 kts 137°
2026-05-04 12:23 -5.16967 38.54967 18986 ft 230 kts 137°
2026-05-04 12:23 -5.18188 38.56003 18986 ft 230 kts 137°
2026-05-04 12:23 -5.19408 38.57039 18985 ft 230 kts 137°
2026-05-04 12:23 -5.20628 38.58076 18978 ft 230 kts 137°
2026-05-04 12:24 -5.21845 38.59107 18978 ft 230 kts 137°
2026-05-04 12:24 -5.23071 38.60148 18993 ft 230 kts 137°
2026-05-04 12:24 -5.24290 38.61188 18997 ft 231 kts 136°
2026-05-04 12:24 -5.25529 38.62240 18984 ft 232 kts 137°
2026-05-04 12:25 -5.26762 38.63285 18980 ft 232 kts 136°
2026-05-04 12:25 -5.27990 38.64327 18980 ft 232 kts 136°
2026-05-04 12:25 -5.29221 38.65373 18979 ft 232 kts 136°
2026-05-04 12:25 -5.30453 38.66421 18973 ft 232 kts 136°
2026-05-04 12:26 -5.31681 38.67465 18968 ft 232 kts 136°
2026-05-04 12:26 -5.32915 38.68511 18970 ft 232 kts 136°
2026-05-04 12:26 -5.34143 38.69555 18968 ft 232 kts 136°
2026-05-04 12:26 -5.35378 38.70604 18968 ft 232 kts 136°
2026-05-04 12:27 -5.36590 38.71636 18970 ft 232 kts 136°
2026-05-04 12:27 -5.37820 38.72680 18971 ft 231 kts 136°
2026-05-04 12:27 -5.39049 38.73724 18974 ft 231 kts 136°
2026-05-04 12:27 -5.40275 38.74766 18971 ft 231 kts 136°
2026-05-04 12:28 -5.41499 38.75806 18970 ft 231 kts 136°
2026-05-04 12:28 -5.42720 38.76844 18969 ft 230 kts 136°
2026-05-04 12:28 -5.43947 38.77891 18934 ft 232 kts 136°
2026-05-04 12:28 -5.45213 38.78965 18640 ft 245 kts 136°
2026-05-04 12:29 -5.46549 38.80101 18325 ft 257 kts 136°
2026-05-04 12:29 -5.47941 38.81286 17934 ft 267 kts 136°
2026-05-04 12:29 -5.49378 38.82510 17541 ft 275 kts 137°
2026-05-04 12:29 -5.50857 38.83767 17122 ft 281 kts 137°
2026-05-04 12:30 -5.52363 38.85046 16704 ft 286 kts 137°
2026-05-04 12:30 -5.53891 38.86347 16285 ft 290 kts 137°
2026-05-04 12:30 -5.55434 38.87660 15879 ft 293 kts 137°
2026-05-04 12:30 -5.56997 38.88989 15460 ft 295 kts 137°
2026-05-04 12:31 -5.58033 38.89871 15193 ft 295 kts 137°
2026-05-04 12:31 -5.59564 38.91170 14795 ft 280 kts 137°
2026-05-04 12:31 -5.61016 38.92408 14408 ft 269 kts 137°
2026-05-04 12:31 -5.62435 38.93628 14052 ft 269 kts 137°
2026-05-04 12:32 -5.63843 38.94857 13669 ft 271 kts 137°
2026-05-04 12:32 -5.66724 38.97340 12835 ft 273 kts 138°
2026-05-04 12:32 -5.68170 38.98572 12432 ft 273 kts 138°
2026-05-04 12:33 -5.69618 38.99804 12029 ft 273 kts 138°
2026-05-04 12:33 -5.71067 39.01036 11633 ft 272 kts 138°
2026-05-04 12:33 -5.72508 39.02263 11238 ft 272 kts 138°
2026-05-04 12:33 -5.73951 39.03491 10850 ft 271 kts 139°
2026-05-04 12:34 -5.75388 39.04718 10465 ft 270 kts 139°
2026-05-04 12:34 -5.76817 39.05932 10085 ft 269 kts 139°
2026-05-04 12:34 -5.78246 39.07146 9695 ft 268 kts 139°
2026-05-04 12:34 -5.79638 39.08326 9276 ft 254 kts 140°
2026-05-04 12:35 -5.80956 39.09429 8896 ft 241 kts 140°
2026-05-04 12:35 -5.82211 39.10487 8530 ft 230 kts 140°
2026-05-04 12:35 -5.83404 39.11505 8202 ft 221 kts 140°
2026-05-04 12:35 -5.84550 39.12485 7885 ft 213 kts 140°
2026-05-04 12:36 -5.85656 39.13433 7567 ft 206 kts 140°
2026-05-04 12:36 -5.86732 39.14356 7258 ft 199 kts 140°
2026-05-04 12:36 -5.87767 39.15249 6990 ft 194 kts 140°
2026-05-04 12:36 -5.88784 39.16120 6713 ft 192 kts 140°
2026-05-04 12:37 -5.89807 39.16997 6423 ft 194 kts 140°
2026-05-04 12:37 -5.90847 39.17882 6113 ft 197 kts 140°
2026-05-04 12:37 -5.91896 39.18778 5793 ft 199 kts 140°
2026-05-04 12:37 -5.92980 39.19625 5506 ft 194 kts 154°
2026-05-04 12:38 -5.94280 39.19874 5269 ft 189 kts 175°
2026-05-04 12:38 -5.95574 39.19947 5016 ft 183 kts 176°
2026-05-04 12:38 -5.96812 39.20016 4781 ft 178 kts 176°
2026-05-04 12:38 -5.98044 39.20094 4540 ft 173 kts 175°
2026-05-04 12:39 -5.99214 39.20181 4308 ft 169 kts 174°
2026-05-04 12:39 -6.00371 39.20285 4081 ft 165 kts 174°
2026-05-04 12:39 -6.01528 39.20404 3854 ft 171 kts 174°
2026-05-04 12:39 -6.02739 39.20540 3554 ft 179 kts 174°
2026-05-04 12:40 -6.03965 39.20654 3311 ft 174 kts 175°
2026-05-04 12:40 -6.05160 39.20774 3076 ft 169 kts 174°
2026-05-04 12:40 -6.06296 39.20894 2859 ft 160 kts 175°
2026-05-04 12:40 -6.07372 39.21004 2661 ft 152 kts 175°
2026-05-04 12:41 -6.08402 39.21101 2470 ft 145 kts 175°
2026-05-04 12:41 -6.09389 39.21197 2285 ft 140 kts 175°
2026-05-04 12:41 -6.10340 39.21296 2103 ft 136 kts 175°
2026-05-04 12:41 -6.11290 39.21387 1946 ft 139 kts 175°
2026-05-04 12:42 -6.12262 39.21497 1764 ft 139 kts 175°
2026-05-04 12:42 -6.13225 39.21584 1588 ft 138 kts 175°
2026-05-04 12:42 -6.14145 39.21675 1401 ft 124 kts 174°
2026-05-04 12:42 -6.14938 39.21768 1257 ft 110 kts 174°
2026-05-04 12:43 -6.15714 39.21848 1114 ft 112 kts 175°
2026-05-04 12:43 -6.16488 39.21915 967 ft 111 kts 175°
2026-05-04 12:43 -6.17249 39.21984 832 ft 109 kts 172°
2026-05-04 12:43 -6.17996 39.22070 675 ft 106 kts 174°
2026-05-04 12:44 -6.18726 39.22142 542 ft 106 kts 176°
2026-05-04 12:44 -6.19473 39.22220 434 ft 109 kts 176°
2026-05-04 12:44 -6.20239 39.22296 291 ft 114 kts 175°
2026-05-04 12:44 -6.20997 39.22375 123 ft 107 kts 176°
2026-05-04 12:45 -6.21653 39.22436 56 ft 60 kts 176°
2026-05-04 12:45 -6.21861 39.22456 59 ft 17 kts 174°
2026-05-04 12:45 -6.21961 39.22454 53 ft 11 kts 209°
2026-05-04 12:45 -6.21978 39.22396 56 ft 7 kts 264°
2026-05-04 12:46 -6.21978 39.22395 56 ft 0 kts 264°
2026-05-04 12:47 -6.21979 39.22373 56 ft 6 kts 266°
2026-05-04 12:47 -6.21983 39.22326 57 ft 7 kts 266°
2026-05-04 12:47 -6.21991 39.22299 56 ft 4 kts 207°
2026-05-04 12:47 -6.22027 39.22302 56 ft 6 kts 172°
2026-05-04 12:48 -6.22061 39.22284 56 ft 8 kts 238°
2026-05-04 12:48 -6.22070 39.22246 56 ft 5 kts 264°
2026-05-04 12:48 -6.22070 39.22244 56 ft 0 kts 263°